Showing default

YUNHAI 2-1C, 43911

Orbit data source: Space-Track

YUNHAI 2-1C, 43911 is a payload satellite owned by CASC (CN) in LEO that was launched on Sat, 29 Dec 2018 UTC via a CHANG ZHENG 2D/YZ-3 launch vehicle from the Jiuquan Satellite Launch Center, China (JSC). Payload-class satellites include a variety of spacecraft equipped with specific instruments for various scientific and technological missions. These include communications satellites like Starlink; space stations such as the ISS; scientific satellites like the Hubble; Earth observation satellites from companies like Planet Labs, Umbra, and HawkEye 360; GPS; miniature CubeSats for education and research; and military/defense satellites.

Loading next visibility...
Identifier
43911, 2018-112C
Orbit
LEO
Country
Flag of CNCN / PRC
Related business
Manufacturer
DFH Shenzhen
Mission
Operational Defense Meteo Radio Occ.
Bus & Motor
YH-2, Unknown motor
Mass
~100 kg wet, ~100 kg dry
Launch date (UTC)
2018-12-29 (7 years ago)
Launch vehicle
CHANG ZHENG 2D/YZ-3
Launch site
Jiuquan Satellite Launch Center, China (JSC)
Object type
Payload
Rocket body
Debris
Shape & HBR
Box + 2 Pan, 0.5 m
Radar Cross Section
0.166 m², Large (>1 m²)

Expand to show TLE details & history
Last TLE update: 1 day ago

TLE from 1 day ago
0 YUNHAI 2-1C
1 43911U 18112C   26172.48656398 -.00000243  00000-0 -31811-4 0  9997
2 43911  50.0129 329.1904 0000874 148.3038 211.7930 14.28997781392408
Epoch: 2026-06-21T11:40Z
TLE epoch observation values (Epoch: 2026-06-21T11:40:39.127Z)
Latitude
-0.00004°
Longitude
-115.6588°
Altitude
796.148 km
Speed
7.456 km/s
True Right ascension
21h 56m 45s
True Declination
0° 00' 00"
Sunlit
Object was in full shadow at epoch
Visualization orbit readout
Latitude
Unknown
Longitude
Unknown
Altitude
Unknown
Speed
Unknown
Apparent Right ascension
Unknown
Apparent Declination
Unknown
Sunlit
N/A
Visualization observer readout
Local Sidereal Time
00:51:13
Azimuth
Unknown
Elevation
Unknown
Doppler factor
Unknown
Orbital elements
Apogee altitude
796.448 km
Perigee altitude
795.194 km
Semi-major axis
7,173.958 km
Eccentricity
0.00009
Inclination
50.0129°
RAAN
329.1904°
Arg. of periapsis
148.3038°
True anomaly
211.78772°
Mean anomaly
211.793°
Eccentric anomaly
211.79036°
Mean motion
3.57195 °/min
Orbital period
100.79 mins
BSTAR
-0.000031811
Loading maneuver chart data...
Computing Atmospheric mass density...
Loading historical data...
Loading historical data...
Loading historical data...
Loading historical data...
Loading historical data...
Loading historical data...
Loading historical data...

Documentation

Showing up to 5 results
|